IUS DEB, 26076

Orbit data source: Space-Track

IUS DEB, 26076 is space debris originally from a launch on Fri, 23 Jul 1999 UTC launched from the Air Force Eastern Test Range (AFETR). Debris objects in space refer to the collection of defunct objects orbiting the Earth. Examples of debris include non-operational satellites, rocket bodies, and fragments generated from explosions, collisions, or faulty payload assembly.

Loading next visibility...
Identifier
26076, 1999-040E
Orbit
Active
Country
Flag of USUS
Related business
Manufacturer
Boeing/Kent
Mission
Spacecraft
Bus & Motor
Unknown
Mass
Unknown
Launch date (UTC)
1999-07-23 (27 years ago)
Launch vehicle
Unknown
Launch site
Air Force Eastern Test Range (AFETR)
Object type
Payload
Rocket body
Debris
Shape & HBR
Unknown shape, 0.1 m
Radar Cross Section
Medium (>0.1 m² and <1 m²)

Expand to show TLE details & history
Last TLE update: 3 days ago

TLE from 3 days ago
0 IUS DEB
1 26076U 99040E   26170.35380264  .00001159  00000-0  37501-3 0  9995
2 26076  28.3954 189.7701 4312471   0.6266 359.7888  6.70515917528227
Epoch: 2026-06-19T08:29Z
TLE epoch observation values (Epoch: 2026-06-19T08:29:28.548Z)
Latitude
-0°
Longitude
154.81716°
Altitude
377.73 km
Speed
9.19 km/s
True Right ascension
12h 39m 04s
True Declination
0° 00' 00"
Sunlit
Object was in daylight at epoch
Visualization orbit readout
Latitude
Unknown
Longitude
Unknown
Altitude
Unknown
Speed
Unknown
Apparent Right ascension
Unknown
Apparent Declination
Unknown
Sunlit
N/A
Visualization observer readout
Local Sidereal Time
00:50:41
Azimuth
Unknown
Elevation
Unknown
Doppler factor
Unknown
Orbital elements
Apogee altitude
10,629.055 km
Perigee altitude
380.228 km
Semi-major axis
11,882.778 km
Eccentricity
0.43125
Inclination
28.3954°
RAAN
189.7701°
Arg. of periapsis
0.6266°
True anomaly
359.41094°
Mean anomaly
359.7888°
Eccentric anomaly
359.62866°
Mean motion
1.67558 °/min
Orbital period
214.85 mins
BSTAR
0.00037501
Loading maneuver chart data...
Computing Atmospheric mass density...
Loading historical data...
Loading historical data...
Loading historical data...
Loading historical data...
Loading historical data...
Loading historical data...
Loading historical data...

Documentation

Showing up to 5 results
|